Location: Eschentzwiller
(47.7125°N, 7.3981°E)
Time: 23:31:55
(UTC+00:00)

Cosmos 2227 Rocket - Pass Details

Date: 27 October 2020
Orbit: 839 x 845 km, 71.0° (Epoch: 26 November)

Event Time Altitude Azimuth Distance (km) Brightness Sun altitude
Rises 19:04:53 0° 323° (NW) 3,407 6.0 -28.2°
Reaches altitude 10° 19:07:44 10° 310° (NW) 2,469 5.4 -28.7°
Maximum altitude 19:12:11 25° 258° (WSW) 1,661 4.3 -29.4°
Drops below altitude 10° 19:16:39 10° 205° (SSW) 2,458 4.7 -30.1°
Sets 19:19:29 0° 193° (SSW) 3,389 5.3 -30.6°
